Weather History for Klamath Falls, OR

Change the Weather History Date:

Wednesday, April 10, 2013

  Actual Average Record
Temperature  
Mean Temperature 47 °F 42 °F  
Max Temperature 63 °F 55 °F 75 °F (1988)
Min Temperature 30 °F 28 °F 15 °F (1962)
Degree Days  
Heating Degree Days 18 23  
Month to date heating degree days 207 243  
Since 1 July heating degree days 5649 5905  
Cooling Degree Days 0 0  
Month to date cooling degree days 0 0  
Year to date cooling degree days 0 0  
Moisture  
Dew Point 37 °F    
Average Humidity 75    
Maximum Humidity 100    
Minimum Humidity 48    
Precipitation  
Precipitation 0.00 in 0.03 in 0.15 in (1956)
Month to date precipitation 0.98 0.35  
Year to date precipitation 2.46 5.39  
Sea Level Pressure  
Sea Level Pressure 30.21 in    
Wind  
Wind Speed 9 mph (WNW)    
Max Wind Speed 28 mph    
Max Gust Speed 32 mph    
Visibility 10 miles    
Events      
T = Trace of Precipitation, MM = Missing Value Source: NWS Daily Summary

Daily Weather History Graph

Daily Weather History Graph

Search for Another Location

Airport:

Trip Planner

Search our weather history database for the weather conditions in past years. The results will help you decide how hot, cold, wet, or windy it might be!

Date:

Astronomy

Apr. 10, 2013 Rise Set
Actual Time 6:33 AM PDT 7:43 PM PDT
Civil Twilight 6:05 AM PDT 8:11 PM PDT
Nautical Twilight 5:30 AM PDT 8:46 PM PDT
Astronomical Twilight 4:54 AM PDT 9:22 PM PDT
Moon 6:32 AM PDT (4/10) 8:25 PM PDT (4/10)
Length of Visible Light 14h 06m
Length of Day
13h 09m
Waxing Crescent, 0% of the Moon is Illuminated
Apr 10
Waxing Crescent
Apr 18
First Quarter
Apr 25
Full
May 2
Last Quarter
May 9
New

Hourly Weather History & Observations

Time (PDT) Temp. Windchill Dew Point Humidity Pressure Visibility Wind Dir Wind Speed Gust Speed Precip Events Conditions
12:53 AM 43.0 °F 38.8 °F 37.0 °F 80% 30.26 in 10.0 mi WNW 6.9 mph - N/A   Clear
1:53 AM 36.0 °F 33.3 °F 35.1 °F 97% 30.28 in 10.0 mi SSE 3.5 mph - N/A   Clear
2:53 AM 37.0 °F - 34.0 °F 89% 30.27 in 10.0 mi Calm Calm - N/A   Clear
3:53 AM 33.1 °F - 32.0 °F 96% 30.27 in 10.0 mi Calm Calm - N/A   Clear
4:53 AM 33.1 °F - 30.9 °F 92% 30.27 in 10.0 mi Calm Calm - N/A   Clear
5:53 AM 30.9 °F 27.5 °F 30.0 °F 96% 30.27 in 10.0 mi NE 3.5 mph - N/A   Clear
6:53 AM 32.0 °F - 30.0 °F 92% 30.27 in 10.0 mi Calm Calm - N/A   Scattered Clouds
7:53 AM 37.0 °F - 35.1 °F 93% 30.28 in 10.0 mi Calm Calm - N/A   Scattered Clouds
8:53 AM 45.0 °F - 39.0 °F 80% 30.27 in 10.0 mi Calm Calm - N/A   Mostly Cloudy
9:53 AM 52.0 °F - 42.1 °F 69% 30.23 in 10.0 mi SSW 6.9 mph - N/A   Mostly Cloudy
10:53 AM 54.0 °F - 42.1 °F 64% 30.22 in 10.0 mi SW 8.1 mph - N/A   Mostly Cloudy
11:53 AM 57.0 °F - 42.1 °F 57% 30.19 in 10.0 mi WSW 10.4 mph - N/A   Mostly Cloudy
12:53 PM 61.0 °F - 43.0 °F 52% 30.16 in 10.0 mi West 12.7 mph - N/A   Mostly Cloudy
1:53 PM 62.1 °F - 43.0 °F 50% 30.15 in 10.0 mi NW 17.3 mph 28.8 mph N/A   Partly Cloudy
2:53 PM 59.0 °F - 42.1 °F 53% 30.17 in 10.0 mi WNW 21.9 mph 29.9 mph N/A   Scattered Clouds
3:53 PM 54.0 °F - 41.0 °F 62% 30.18 in 10.0 mi WNW 20.7 mph - N/A   Overcast
4:53 PM 53.1 °F - 41.0 °F 64% 30.17 in 10.0 mi WNW 18.4 mph - N/A   Overcast
5:53 PM 52.0 °F - 39.9 °F 63% 30.16 in 10.0 mi NNW 16.1 mph 24.2 mph N/A   Mostly Cloudy
6:53 PM 48.0 °F - 39.0 °F 71% 30.18 in 10.0 mi NNW 16.1 mph 24.2 mph N/A   Mostly Cloudy
7:53 PM 46.0 °F 41.0 °F 37.9 °F 73% 30.17 in 10.0 mi NW 10.4 mph - N/A   Mostly Cloudy
8:53 PM 43.0 °F 37.7 °F 35.1 °F 74% 30.18 in 10.0 mi NNW 9.2 mph - N/A   Mostly Cloudy
9:53 PM 42.1 °F 34.2 °F 33.1 °F 70% 30.16 in 10.0 mi NW 16.1 mph - N/A   Clear
10:53 PM 37.0 °F 31.0 °F 30.0 °F 76% 30.19 in 10.0 mi NNW 8.1 mph - N/A   Clear
11:53 PM 34.0 °F 31.0 °F 28.9 °F 82% 30.19 in 10.0 mi Variable 3.5 mph - N/A   Clear